Regional Weather Roundup
Issued by NWS

Home | Current Version | Previous Version | Text Only | Print | Product List | Glossary On
Versions: 1 2 3 4 5 6 7 8 9 10 11 12 13 14 15 16 17 18 19 20 21 22 23 24 25 26 27 28 29 30 31 32 33 34 35 36 37 38 39 40 41 42 43 44 45 46 47 48 49
000
ASUS45 KBOU 141707
RWRCO

WEATHER ROUNDUP FOR COLORADO
NATIONAL WEATHER SERVICE DENVER/BOULDER CO
1100 AM MDT SUN SEP 14 2014

NOTE: "FAIR" INDICATES FEW OR NO CLOUDS BELOW 12000 FEET WITH NO
SIGNIFICANT WEATHER AND/OR OBSTRUCTIONS TO VISIBILITY.

COZ001>005-013-030-031-141800-
...NORTHWEST COLORADO...

CITY           SKY/WX    TMP DP  RH WIND       PRES   REMARKS
CRAIG          MOSUNNY   70  40  33 NE6       30.20F
HAYDEN         MOSUNNY   66  34  30 SE7       30.22F
MEEKER         SUNNY     69  39  33 CALM      30.22F
MOUNT WERNER   NOT AVBL
STEAMBOAT SPGS MOSUNNY   61  40  44 CALM      30.24F
WALDEN         MOSUNNY   63  30  29 SW17      30.28F
$$

COZ006>008-011-141800-
...WEST CENTRAL VALLEYS...

CITY           SKY/WX    TMP DP  RH WIND       PRES   REMARKS
GRAND JUNCTION SUNNY     71  35  26 S6        30.16S
MONTROSE       SUNNY     74  40  29 SW5       30.23F
EAGLE          MOSUNNY   57  34  41 CALM      30.29F
RIFLE          SUNNY     64  38  38 CALM      30.22F
DELTA          SUNNY     72  37  28 NE3       30.20F
NUCLA          SUNNY     70  43  37 CALM      30.28F
$$

COZ017>023-064>068-141800-
...SOUTHWEST COLORADO...

CITY           SKY/WX    TMP DP  RH WIND       PRES   REMARKS
DURANGO        SUNNY     69  45  41 SE9       30.31F
CORTEZ         SUNNY     73  46  38 VRB3      30.25F
PAGOSA SPRINGS NOT AVBL
TELLURIDE      MOSUNNY   66  34  30 CALM      30.43F
WOLF CREEK PAS SUNNY     46  37  71 SW9       30.63S
$$

COZ009-010-012-014-032>034-037-058>063-141800-
...CENTRAL COLORADO...

CITY           SKY/WX    TMP DP  RH WIND       PRES   REMARKS
ASPEN          SUNNY     69  35  28 N5        30.32F
BUENA VISTA    SUNNY     63  32  31 SE5       30.35F
COPPER MTN     PTSUNNY   52  23  32 W20G29    30.59S
BERTHOUD PASS  FAIR      43  41  93 W25G45    30.60R
COTTONWOOD PAS MOSUNNY   63  27  25 CALM      30.47F
GUNNISON       SUNNY     57  34  41 S3        30.41F
KREMMLING      SUNNY     55  32  41 CALM      30.32F
LEADVILLE      PTSUNNY   60  26  27 NW8       30.45F
SALIDA         SUNNY     66  35  31 NE5       30.39F
SUNLIGHT       SUNNY     59  36  41 CALM      30.54R
WILKERSON PASS NOT AVBL
$$

COZ069>075-141800-
...SAN LUIS VALLEY/SANGRE DE CRISTO MOUNTAINS...

CITY           SKY/WX    TMP DP  RH WIND       PRES   REMARKS
ALAMOSA        SUNNY     66  41  40 E6        30.36F
LA VETA PASS   NOT AVBL
SAGUACHE       NOT AVBL
$$

COZ035-036-038>040-141800-
...NORTHERN COLORADO FRONT RANGE...

CITY           SKY/WX    TMP DP  RH WIND       PRES   REMARKS
DENVER INTL AP PTSUNNY   78  36  21 W8        30.13F
DMNS CITY PARK   N/A     78  39  24 SW5       30.12F
AURORA         PTSUNNY   77  37  23 SW7       30.16F
FRONT RANGE AP NOT AVBL
ERIE MUNI ARPT MOSUNNY   80  38  22 SW3       30.10F
BOULDER MUN AP MOSUNNY   79  41  25 SE5       30.11F
CENTENNIAL     MOSUNNY   75  35  23 SW10      30.17F
BROOMFIELD     MOSUNNY   77  36  22 S5        30.15
FORT COLLINS   MOSUNNY   66  48  52 SE6       30.10F
LONGMONT       MOSUNNY   70  53  53 CALM      30.11F
$$

COZ041-046-047-076>085-087-088-141800-
...PIKES PEAK/PALMER DIVIDE AND SOUTHERN FOOTHILLS...

CITY           SKY/WX    TMP DP  RH WIND       PRES   REMARKS
COLO. SPRINGS  MOSUNNY   79  33  19 SW9       30.21F
A. F. ACADEMY  SUNNY     77  28  16 VRB7G20   30.22F
ELLICOTT       NOT AVBL
FALCON         SUNNY     76  25  15 W9        30.26F
FORT CARSON    SUNNY     77  38  24 SE5       30.18F
LIMON          SUNNY     79  42  26 W7        30.14F
MONUMENT HILL  SUNNY     72  32  23 NW12      30.25F
TRINIDAD       SUNNY     77  42  28 VRB5      30.21S
$$

COZ042>045-048>051-090-091-141800-
...NORTHEAST COLORADO...

CITY           SKY/WX    TMP DP  RH WIND       PRES   REMARKS
GREELEY ARPT   MOSUNNY   64  45  48 CALM      30.10F
AKRON          SUNNY     69  43  38 SW6       30.10F
BURLINGTON     SUNNY     70  56  61 SE8       30.09F
WRAY           SUNNY     63  54  71 E10       30.09F
STERLING       SUNNY     61  52  72 CALM      30.08S
HOLYOKE        MOSUNNY   59  55  88 E8        30.10F
FORT MORGAN    SUNNY     68  44  42 CALM      30.10R
$$

COZ086-089-092>099-141800-
...SOUTHEAST COLORADO...

CITY           SKY/WX    TMP DP  RH WIND       PRES   REMARKS
PUEBLO         SUNNY     74  39  28 CALM      30.12F
LA JUNTA       SUNNY     74  46  36 W8        30.10F
LAMAR          SUNNY     65  55  70 W7        30.08F
SPRINGFIELD      N/A     79  49  34 SW6       30.12F
$$



USA.gov is the U.S. government's official web portal to all federal, state and local government web resources and services.